Вернуться в каталог

FREGAT DEB

LostUNKNOWN
NORAD 52956·DEBRIS·🇷🇺 Russia

Запущен Jul 18, 2011 с Baikonur Cosmodrome

Loading…

Ближайшие Пролёты (ближайшие 24 часа)

TLE

УстаревшееSource: Space-Track

Эпоха: Sep 11, 2022, 11:34 UTC

1 52956U 11037PK  22254.48213184  .00006115  00000-0  47861-1 0  9995
2 52956  51.5601 278.7828 1798340 173.2228 189.6822 10.15403064 13099

Отслеживайте FREGAT DEB в реальном времени с AllMySat

Download on the App Store